DW4145 Weather Reports


time (UTC)temp
C
wind
direction
speed
KPH
gust
KPH
rain 1hr
cm
rain 24hr
cm
rain mn
cm
humidity
%
barometer
mb
20260906021531 27 100 0.0 3.2 0.00 0.00 0.00 70 1012.0
20260906020017 27 100 0.0 0.0 0.00 0.00 0.00 69 1011.6
20260906014523 27 100 0.0 0.0 0.00 0.00 0.00 67 1011.5
20260906013024 28 100 0.0 3.2 0.00 0.00 0.00 66 1011.4
20260906011526 28 100 0.0 3.2 0.00 0.00 0.00 62 1012.1
20260906010028 30 93 1.6 4.8 0.00 0.00 0.00 62 1012.1
20260906004520 31 98 0.0 3.2 0.00 0.00 0.00 64 1011.9
20260906003019 31 16 0.0 3.2 0.00 0.00 0.00 62 1011.6
20260906001542 32 223 0.0 3.2 0.00 0.00 0.00 59 1011.5
20260906000026 32 223 0.0 0.0 0.00 0.00 0.00 57 1011.5
20260905234527 33 223 0.0 3.2 0.00 0.00 0.00 55 1011.4
20260905233025 33 148 0.0 4.8 0.00 0.00 0.00 53 1011.5
20260905231511 34 242 0.0 4.8 0.00 0.00 0.00 53 1011.3
20260905230006 35 215 0.0 6.4 0.00 0.00 0.00 50 1011.3
20260905224510 36 125 1.6 4.8 0.00 0.00 0.00 47 1011.3
20260905223032 36 298 0.0 4.8 0.00 0.00 0.00 46 1011.4
20260905221507 36 313 1.6 6.4 0.00 0.00 0.00 46 1011.5
20260905220004 36 295 1.6 8.0 0.00 0.00 0.00 47 1011.4
20260905214513 36 94 1.6 6.4 0.00 0.00 0.00 46 1011.5
20260905213009 36 176 1.6 8.0 0.00 0.00 0.00 47 1011.6
20260905211523 37 225 0.0 11.3 0.00 0.00 0.00 48 1011.6
20260905210042 36 233 1.6 8.0 0.00 0.00 0.00 47 1011.8
20260905204504 36 183 3.2 11.3 0.00 0.00 0.00 47 1011.9
20260905203016 36 172 3.2 11.3 0.00 0.00 0.00 47 1012.0
20260905201521 36 304 1.6 19.3 0.00 0.00 0.00 48 1012.3
20260905200011 36 175 3.2 8.0 0.00 0.00 0.00 46 1012.6
20260905194530 36 247 3.2 8.0 0.00 0.00 0.00 49 1012.7
20260905193016 35 64 3.2 8.0 0.00 0.00 0.00 49 1012.8
20260905191513 35 275 1.6 11.3 0.00 0.00 0.00 49 1013.1
20260905190018 35 10 3.2 9.7 0.00 0.00 0.00 51 1013.3
20260905184529 35 174 1.6 8.0 0.00 0.00 0.00 1013.4
20260905183011 35 235 1.6 3.2 0.00 0.00 0.00 53 1013.8
20260905181510 36 182 3.2 4.8 0.00 0.00 0.00 51 1014.0
20260905180019 36 147 0.0 3.2 0.00 0.00 0.00 53 1014.0
20260905174522 35 297 1.6 3.2 0.00 0.00 0.00 52 1014.3
20260905173017 35 55 0.0 4.8 0.00 0.00 0.00 54 1014.4
20260905171519 34 119 1.6 4.8 0.00 0.00 0.00 56 1014.5
20260905170013 33 98 0.0 3.2 0.00 0.00 0.00 58 1014.6
20260905164520 33 190 1.6 3.2 0.00 0.00 0.00 61 1014.9
20260905163027 33 181 0.0 4.8 0.00 0.00 0.00 63 1015.0
20260905161529 32 217 1.6 4.8 0.00 0.00 0.00 62 1015.2
20260905160024 31 5 1.6 4.8 0.00 0.00 0.00 65 1015.3
20260905154528 30 28 1.6 6.4 0.00 0.00 0.00 70 1015.3
20260905153024 29 49 3.2 6.4 0.00 0.00 0.00 73 1015.4
20260905151531 28 360 0.0 4.8 0.00 0.00 0.00 77 1015.4
20260905150034 27 17 0.0 0.0 0.00 0.00 0.00 81 1015.5
20260905144525 27 245 0.0 1.6 0.00 0.00 0.00 83 1015.6
20260905143024 26 230 0.0 3.2 0.00 0.00 0.00 86 1015.6
20260905141514 25 167 0.0 1.6 0.00 0.00 0.00 88 1015.5
20260905140007 25 275 0.0 0.0 0.00 0.00 0.00 89 1015.6
20260905134516 24 352 0.0 0.0 0.00 0.00 0.00 91 1015.6
20260905133014 23 182 0.0 0.0 0.00 0.00 0.00 93 1015.7
20260905131508 23 182 0.0 3.2 0.00 0.00 0.00 93 1015.7
20260905130014 23 9 0.0 0.0 0.00 0.00 0.00 94 1015.8
20260905124504 22 9 0.0 0.0 0.00 0.00 0.00 95 1015.8
20260905123027 22 9 0.0 0.0 0.00 0.00 0.00 96 1015.7
20260905121518 22 9 0.0 0.0 0.00 0.00 0.00 96 1015.5
20260905120030 22 9 0.0 0.0 0.00 0.00 0.00 95 1015.4
20260905114507 22 9 0.0 0.0 0.00 0.00 0.00 95 1015.2
20260905113009 22 9 0.0 0.0 0.00 0.00 0.00 95 1015.1
20260905111504 22 9 0.0 0.0 0.00 0.00 0.00 95 1014.9
20260905110019 22 9 0.0 0.0 0.00 0.00 0.00 95 1014.6
20260905104528 22 9 0.0 0.0 0.00 0.00 0.00 94 1014.5
20260905103009 22 9 0.0 0.0 0.00 0.00 0.00 94 1014.4
20260905101510 22 9 0.0 0.0 0.00 0.00 0.00 94 1014.4
20260905100221 22 9 0.0 0.0 0.00 0.00 0.00 95 1014.1
20260905100217 22 9 0.0 0.0 0.00 0.00 0.00 95 1014.2
20260905100157 22 9 0.0 0.0 0.00 0.00 0.00 95 1014.1
20260905044541 24 16 0.0 0.0 0.00 0.00 0.00 88 1014.7
20260905043021 25 16 0.0 3.2 0.00 0.00 0.00 88 1014.9
20260905041505 25 333 0.0 0.0 0.00 0.00 0.00 87 1014.8
20260905040015 25 333 0.0 0.0 0.00 0.00 0.00 85 1014.8
20260905034513 25 333 0.0 0.0 0.00 0.00 0.00 84 1015.0
20260905033004 26 333 0.0 0.0 0.00 0.00 0.00 83 1014.9
20260905031527 26 333 0.0 0.0 0.00 0.00 0.00 81 1014.9
20260905030019 26 333 0.0 0.0 0.00 0.00 0.00 80 1015.0
20260905024509 26 333 0.0 0.0 0.00 0.00 0.00 79 1015.2
20260905023014 27 281 0.0 0.0 0.00 0.00 0.00 80 1015.2